�N����,����,�~����,�C��,���x,�C��,����,���ϕ���,�ő�u�ԕ���,�ő厞����,���˗�,�I�_���x,�n�����x,�ő啗���N��,DTYPE
"20/07/21","00:10",0.0,26.1,88.1,1005.5,307.2,1.0,1.8,343.8,0.00,24.0,27.0,"00:08:16",1
"20/07/21","00:20",0.0,26.0,88.3,1005.0,321.1,0.8,2.7,338.8,0.00,24.0,27.0,"00:10:40",1
"20/07/21","00:30",0.0,25.9,88.5,1005.2,327.0,0.6,1.1,342.3,0.00,23.9,26.8,"00:22:32",1
"20/07/21","00:40",0.0,25.8,88.7,1005.2,286.7,0.7,1.3,332.0,0.00,23.8,26.7,"00:38:56",1
"20/07/21","00:50",0.0,25.8,88.9,1005.2,314.8,0.8,1.7,308.7,0.00,23.9,26.7,"00:42:32",1
"20/07/21","01:00",0.0,25.6,89.0,1005.2,309.2,0.6,1.4,323.9,0.00,23.7,26.6,"00:50:24",1
"20/07/21","01:10",0.0,25.5,89.1,1004.8,192.0,0.3,0.9,336.8,0.00,23.6,26.7,"01:07:20",1
"20/07/21","01:20",0.0,25.3,89.3,1005.0,308.5,0.7,1.3,322.2,0.00,23.5,26.7,"01:10:32",1
"20/07/21","01:30",0.0,25.1,89.4,1005.0,321.9,0.1,0.8,316.7,0.00,23.3,26.6,"01:29:20",1
"20/07/21","01:40",0.0,25.1,89.6,1005.2,287.4,0.6,1.3,310.2,0.00,23.3,26.6,"01:37:28",1
"20/07/21","01:50",0.0,25.1,89.7,1004.8,302.8,0.6,1.0,317.0,0.00,23.3,26.3,"01:43:04",1
"20/07/21","02:00",0.0,25.0,89.8,1005.0,302.3,0.7,1.0,315.9,0.00,23.2,26.4,"01:56:48",1
"20/07/21","02:10",0.0,24.9,90.0,1005.2,298.6,0.6,1.0,318.4,0.00,23.2,26.6,"02:05:28",1
"20/07/21","02:20",0.0,24.8,90.1,1005.5,310.7,0.5,0.9,346.9,0.00,23.1,26.3,"02:18:32",1
"20/07/21","02:30",0.0,24.8,90.3,1005.2,306.4,0.8,1.1,337.6,0.00,23.1,26.4,"02:22:48",1
"20/07/21","02:40",0.0,24.7,90.4,1005.2,323.4,0.7,1.1,328.8,0.00,23.1,26.2,"02:36:00",1
"20/07/21","02:50",0.0,24.7,90.6,1005.2,312.6,0.8,1.6,329.9,0.00,23.1,26.1,"02:44:56",1
"20/07/21","03:00",0.0,24.7,90.7,1005.2,282.4,0.6,1.1,244.0,0.00,23.1,26.1,"02:52:16",1
"20/07/21","03:10",0.0,24.6,90.8,1005.5,317.6,0.7,1.1,341.6,0.00,23.0,26.1,"03:04:56",1
"20/07/21","03:20",0.0,24.5,91.0,1005.7,310.9,0.5,0.8,322.5,0.00,23.0,26.0,"03:12:16",1
"20/07/21","03:30",0.0,24.5,91.1,1005.7,319.0,0.7,1.0,324.9,0.00,23.0,25.9,"03:23:52",1
"20/07/21","03:40",0.0,24.5,91.3,1006.0,321.6,0.8,1.6,349.0,0.00,23.0,26.0,"03:35:28",1
"20/07/21","03:50",0.0,24.5,91.4,1006.2,323.8,0.8,1.0,333.9,0.00,23.0,25.9,"03:40:40",1
"20/07/21","04:00",0.0,24.4,91.5,1006.2,324.1,0.8,1.1,325.2,0.00,23.0,26.1,"03:51:28",1
"20/07/21","04:10",0.0,24.4,91.6,1006.0,307.4,0.7,1.0,333.5,0.00,23.0,25.8,"04:00:24",1
"20/07/21","04:20",0.0,24.3,91.7,1006.0,283.8,0.5,0.9,283.5,0.00,22.9,25.7,"04:11:12",1
"20/07/21","04:30",0.0,24.4,91.8,1006.0,309.0,0.7,1.2,341.8,0.00,23.0,25.9,"04:27:44",1
"20/07/21","04:40",0.0,24.4,91.9,1006.0,331.2,1.0,1.3,324.8,0.00,23.0,25.9,"04:36:16",1
"20/07/21","04:50",0.0,24.3,92.0,1006.2,304.1,0.6,0.9,325.1,0.00,23.0,25.8,"04:40:24",1
"20/07/21","05:00",0.0,24.3,92.1,1006.4,284.7,0.6,1.2,310.7,0.00,23.0,25.8,"04:53:44",1
"20/07/21","05:10",0.0,24.4,92.2,1006.4,281.9,0.6,1.2,325.2,0.00,23.1,25.8,"05:07:28",1
"20/07/21","05:20",0.0,24.5,92.2,1006.0,311.7,0.8,1.1,324.5,0.00,23.2,25.8,"05:14:24",1
"20/07/21","05:30",0.0,24.5,92.3,1006.2,305.6,0.7,1.0,311.5,0.00,23.2,25.7,"05:24:40",1
"20/07/21","05:40",0.0,24.5,92.4,1006.4,313.0,0.8,1.4,330.4,0.00,23.2,25.8,"05:34:24",1
"20/07/21","05:50",0.0,24.7,92.4,1006.2,293.5,0.5,1.0,313.2,0.00,23.4,25.7,"05:40:40",1
"20/07/21","06:00",0.0,24.8,92.5,1006.4,286.5,0.5,0.6,279.0,0.01,23.5,25.8,"05:56:48",1
"20/07/21","06:10",0.0,25.0,92.5,1006.7,297.3,0.7,1.7,324.2,0.02,23.7,25.8,"06:06:36",1
"20/07/21","06:20",0.0,25.3,92.4,1006.4,340.2,0.8,1.4,337.9,0.03,24.0,25.9,"06:11:12",1
"20/07/21","06:30",0.0,25.5,92.4,1006.7,330.9,0.8,1.4,338.4,0.04,24.2,25.7,"06:21:44",1
"20/07/21","06:40",0.0,26.1,92.5,1006.7,294.4,0.5,0.8,323.6,0.08,24.8,25.9,"06:30:16",1
"20/07/21","06:50",0.0,26.8,92.1,1006.4,27.0,0.0,0.3,316.6,0.08,25.4,25.7,"06:41:12",1
"20/07/21","07:00",0.0,27.3,91.8,1006.4,15.5,0.1,0.9,339.1,0.09,25.9,25.9,"06:59:28",1
"20/07/21","07:10",0.0,27.1,91.4,1006.4,339.9,0.6,1.0,341.0,0.09,25.6,25.8,"07:01:04",1
"20/07/21","07:20",0.0,27.7,91.1,1006.4,330.8,0.2,0.8,342.1,0.12,26.2,25.8,"07:10:24",1
"20/07/21","07:30",0.0,27.7,89.4,1006.0,322.4,0.2,1.1,337.9,0.13,25.8,26.2,"07:22:16",1
"20/07/21","07:40",0.0,28.5,88.3,1006.2,249.5,0.2,0.8,203.4,0.20,26.4,26.3,"07:35:44",1
"20/07/21","07:50",0.0,28.9,85.7,1006.7,52.1,0.5,1.8,110.9,0.22,26.3,26.3,"07:43:36",1
"20/07/21","08:00",0.0,29.6,82.0,1006.9,10.6,0.6,2.0,333.9,0.23,26.2,26.5,"07:52:48",1
"20/07/21","08:10",0.0,29.8,77.5,1006.7,13.7,0.8,1.9,4.0,0.16,25.5,26.5,"08:05:44",1
"20/07/21","08:20",0.0,30.0,76.3,1006.9,339.4,0.6,1.7,353.3,0.21,25.4,26.6,"08:12:24",1
"20/07/21","08:30",0.0,30.4,74.9,1007.1,337.5,0.7,2.0,64.9,0.28,25.5,26.8,"08:26:16",1
"20/07/21","08:40",0.0,30.7,73.2,1007.1,357.3,0.6,1.4,349.2,0.25,25.4,26.8,"08:32:48",1
"20/07/21","08:50",0.0,31.1,71.9,1007.6,15.2,0.7,1.8,23.8,0.34,25.5,27.0,"08:49:12",1
"20/07/21","09:00",0.0,31.9,70.2,1007.6,78.9,0.7,1.8,12.6,0.37,25.8,27.2,"08:50:16",1
"20/07/21","09:10",0.0,32.2,68.2,1007.6,41.1,0.8,2.6,116.7,0.35,25.6,27.5,"09:00:02",1
"20/07/21","09:20",0.0,32.1,68.8,1007.8,113.2,1.0,2.8,128.4,0.37,25.7,27.6,"09:13:20",1
"20/07/21","09:30",0.0,32.4,68.4,1007.6,107.5,1.2,2.7,123.4,0.41,25.9,27.8,"09:23:12",1
"20/07/21","09:40",0.0,32.4,66.7,1008.1,116.8,1.5,3.5,113.1,0.42,25.4,28.1,"09:38:24",1
"20/07/21","09:50",0.0,32.9,64.7,1008.3,183.4,1.2,3.2,104.6,0.45,25.4,28.3,"09:40:16",1
"20/07/21","10:00",0.0,33.3,63.4,1008.1,189.6,0.8,3.2,252.2,0.35,25.4,28.5,"09:59:28",1
"20/07/21","10:10",0.0,33.6,62.4,1008.1,205.9,1.0,3.2,334.5,0.46,25.5,28.5,"10:09:28",1
"20/07/21","10:20",0.0,33.5,61.3,1007.8,319.6,1.1,3.1,356.5,0.43,25.1,28.9,"10:10:08",1
"20/07/21","10:30",0.0,33.8,61.0,1007.6,330.2,1.0,3.4,26.4,0.52,25.3,29.0,"10:21:12",1
"20/07/21","10:40",0.0,34.0,59.8,1007.8,322.3,1.1,2.6,250.3,0.52,25.1,29.0,"10:38:32",1
"20/07/21","10:50",0.0,34.0,59.8,1007.6,208.8,1.2,3.6,227.1,0.49,25.1,29.2,"10:42:24",1
"20/07/21","11:00",0.0,34.4,58.5,1007.6,171.0,0.8,2.4,209.4,0.49,25.1,29.6,"10:54:32",1
"20/07/21","11:10",0.0,34.6,57.1,1007.4,187.1,0.7,2.5,220.3,0.50,24.9,29.7,"11:08:32",1
"20/07/21","11:20",0.0,35.2,57.2,1007.4,211.1,1.0,2.2,210.8,0.56,25.5,30.0,"11:18:24",1
"20/07/21","11:30",0.0,35.2,56.0,1007.6,119.7,1.0,2.9,191.1,0.61,25.1,30.1,"11:26:08",1
"20/07/21","11:40",0.0,35.1,58.2,1007.8,145.1,1.1,3.1,226.3,0.48,25.7,30.4,"11:33:36",1
"20/07/21","11:50",0.0,34.9,56.3,1007.6,190.5,1.7,3.1,206.3,0.63,24.9,30.7,"11:42:32",1
"20/07/21","12:00",0.0,35.1,54.6,1007.6,304.0,0.8,2.2,143.6,0.43,24.6,30.5,"11:50:08",1
"20/07/21","12:10",0.0,34.9,56.3,1007.4,197.1,0.7,2.4,137.3,0.27,24.9,30.7,"12:00:02",1
"20/07/21","12:20",0.0,35.0,56.9,1006.9,150.2,1.6,4.3,202.8,0.54,25.2,30.9,"12:19:12",1
"20/07/21","12:30",0.0,35.6,56.9,1006.9,182.9,1.7,3.5,189.3,0.65,25.8,31.1,"12:20:48",1
"20/07/21","12:40",0.0,34.7,58.3,1006.9,173.6,1.8,3.7,219.0,0.38,25.3,31.1,"12:32:00",1
"20/07/21","12:50",0.0,33.6,60.0,1006.4,206.4,1.8,3.9,214.7,0.16,24.8,30.8,"12:40:32",1
"20/07/21","13:00",0.0,35.0,61.6,1005.7,187.7,1.3,3.4,217.4,0.44,26.6,30.8,"12:51:20",1
"20/07/21","13:10",0.0,35.4,57.7,1006.2,226.2,1.6,3.2,180.8,0.57,25.8,30.8,"13:02:08",1
"20/07/21","13:20",0.0,35.2,57.5,1006.2,206.9,1.8,3.7,192.4,0.55,25.6,30.8,"13:10:16",1
"20/07/21","13:30",0.0,35.6,55.5,1006.2,194.0,1.7,3.3,217.6,0.59,25.4,30.7,"13:23:04",1
"20/07/21","13:40",0.0,36.3,54.5,1006.4,242.8,1.1,2.4,215.7,0.59,25.7,30.8,"13:31:28",1
"20/07/21","13:50",0.0,36.0,52.7,1006.4,303.3,0.6,1.9,278.1,0.31,24.9,30.9,"13:47:20",1
"20/07/21","14:00",0.0,34.7,56.5,1006.0,220.3,1.6,3.4,223.2,0.16,24.8,30.9,"13:57:44",1
"20/07/21","14:10",0.0,34.2,58.7,1005.2,216.3,1.3,2.9,220.6,0.13,25.0,30.9,"14:08:00",1
"20/07/21","14:20",0.0,34.5,59.8,1005.2,228.8,1.7,3.2,225.3,0.33,25.6,30.8,"14:10:24",1
"20/07/21","14:30",0.0,35.0,58.1,1005.2,204.0,1.1,3.3,195.3,0.31,25.6,30.9,"14:20:40",1
"20/07/21","14:40",0.0,34.1,59.6,1005.2,236.2,1.3,3.1,228.1,0.16,25.2,30.8,"14:34:32",1
"20/07/21","14:50",0.0,33.6,61.9,1004.3,236.6,1.2,3.6,218.2,0.11,25.3,30.8,"14:49:44",1
"20/07/21","15:00",0.0,33.0,63.3,1004.5,241.9,1.0,2.4,304.5,0.09,25.1,30.8,"14:57:52",1
"20/07/21","15:10",0.0,32.7,63.5,1004.1,278.9,1.0,2.8,213.7,0.04,24.9,30.7,"15:00:40",1
"20/07/21","15:20",0.0,32.4,64.7,1004.3,283.1,1.0,2.5,309.7,0.00,24.9,30.4,"15:18:48",1
"20/07/21","15:30",4.8,28.8,71.7,1002.9,234.6,2.7,10.0,224.9,0.00,23.2,30.2,"15:25:06",1
"20/07/21","15:40",1.4,27.9,77.8,1001.5,328.1,1.6,4.0,236.8,0.01,23.7,29.8,"15:30:08",1
"20/07/21","15:50",0.2,27.4,81.6,1002.4,348.3,1.5,2.8,356.2,0.03,24.0,29.6,"15:45:12",1
"20/07/21","16:00",0.0,27.1,84.0,1002.4,346.4,1.6,2.7,355.7,0.05,24.2,29.2,"15:51:04",1
"20/07/21","16:10",0.0,27.0,85.6,1002.6,339.0,1.8,3.6,337.4,0.09,24.4,29.5,"16:02:24",1
"20/07/21","16:20",0.0,26.9,86.4,1002.9,348.2,1.5,2.8,339.2,0.10,24.5,29.2,"16:18:24",1
"20/07/21","16:30",0.0,27.0,87.1,1002.9,327.4,1.7,3.2,335.5,0.09,24.7,29.2,"16:22:40",1
"20/07/21","16:40",0.0,27.0,87.3,1002.9,331.4,1.6,4.7,334.2,0.10,24.7,29.3,"16:37:28",1
"20/07/21","16:50",0.0,27.3,87.4,1002.6,324.0,2.3,3.9,343.0,0.14,25.1,29.2,"16:42:40",1
"20/07/21","17:00",0.0,28.3,87.4,1002.6,302.8,1.3,3.4,336.4,0.20,26.0,29.0,"16:52:56",1
"20/07/21","17:10",0.0,28.2,85.8,1002.4,312.2,1.2,2.9,340.3,0.16,25.6,28.9,"17:08:32",1
"20/07/21","17:20",0.0,28.4,84.8,1001.9,323.0,1.5,3.7,358.9,0.12,25.6,28.9,"17:10:24",1
"20/07/21","17:30",0.0,28.4,82.8,1002.2,324.7,1.7,4.2,340.8,0.08,25.2,29.1,"17:23:20",1
"20/07/21","17:40",0.0,27.9,81.8,1002.4,326.2,2.0,4.1,334.6,0.02,24.5,28.8,"17:37:44",1
"20/07/21","17:50",0.0,27.6,81.8,1002.6,322.6,2.0,3.6,340.8,0.00,24.2,28.9,"17:40:32",1
"20/07/21","18:00",0.0,27.3,82.0,1003.1,334.5,2.1,3.4,334.5,0.00,24.0,28.8,"17:58:00",1
"20/07/21","18:10",0.0,27.1,82.1,1003.1,333.8,1.8,3.9,342.0,0.00,23.8,28.7,"18:00:32",1
"20/07/21","18:20",0.0,27.3,82.8,1003.4,332.4,2.3,4.1,324.9,0.00,24.2,28.5,"18:18:08",1
"20/07/21","18:30",0.0,27.0,83.3,1003.4,337.6,2.2,3.5,339.1,0.00,24.0,28.5,"18:26:48",1
"20/07/21","18:40",0.2,26.9,83.9,1003.6,335.0,2.2,4.5,346.9,0.00,24.0,28.3,"18:31:44",1
"20/07/21","18:50",0.2,26.5,84.9,1003.6,344.6,1.8,3.1,345.2,0.00,23.8,28.4,"18:41:12",1
"20/07/21","19:00",0.2,26.2,85.9,1003.4,337.7,1.6,2.7,346.9,0.00,23.7,28.3,"18:54:48",1
"20/07/21","19:10",0.2,26.1,86.7,1003.8,333.8,1.5,3.3,344.9,0.00,23.7,28.2,"19:09:04",1
"20/07/21","19:20",0.2,25.8,87.3,1003.8,336.2,1.3,3.3,347.2,0.00,23.6,28.2,"19:11:28",1
"20/07/21","19:30",0.0,25.5,88.0,1004.3,317.8,1.2,2.9,328.4,0.00,23.4,28.0,"19:29:36",1
"20/07/21","19:40",0.0,25.7,88.4,1004.5,332.2,1.7,3.3,338.3,0.00,23.7,27.9,"19:32:00",1
"20/07/21","19:50",0.0,25.7,88.8,1004.5,341.0,1.3,2.6,343.8,0.00,23.8,27.7,"19:46:40",1
"20/07/21","20:00",0.0,25.8,89.1,1004.3,329.0,1.5,3.4,334.4,0.00,23.9,27.8,"19:54:48",1
"20/07/21","20:10",0.0,25.8,89.4,1004.3,328.8,1.6,3.3,348.5,0.00,24.0,27.8,"20:07:52",1
"20/07/21","20:20",0.0,25.8,89.6,1004.3,341.6,1.6,2.7,336.0,0.00,24.0,27.7,"20:11:36",1
"20/07/21","20:30",0.0,25.8,89.7,1005.0,333.6,1.2,2.7,336.5,0.00,24.0,27.6,"20:21:44",1
"20/07/21","20:40",0.0,25.7,89.9,1004.8,302.9,0.8,1.9,340.5,0.00,24.0,27.5,"20:30:02",1
"20/07/21","20:50",0.0,25.7,90.0,1004.5,333.2,1.5,2.8,334.4,0.00,24.0,27.5,"20:40:48",1
"20/07/21","21:00",0.0,25.7,90.2,1005.0,311.5,0.7,1.3,331.4,0.00,24.0,27.5,"20:55:20",1
"20/07/21","21:10",0.0,25.7,90.4,1005.2,289.8,0.7,1.2,338.0,0.00,24.0,27.6,"21:00:02",1
"20/07/21","21:20",0.0,25.8,90.5,1004.8,337.7,1.3,3.1,325.6,0.00,24.2,27.3,"21:17:36",1
"20/07/21","21:30",0.0,25.8,90.7,1004.5,323.5,1.3,2.9,331.1,0.00,24.2,27.2,"21:20:56",1
"20/07/21","21:40",0.0,25.8,90.8,1004.8,314.1,0.7,1.3,316.3,0.00,24.2,27.2,"21:30:02",1
"20/07/21","21:50",0.0,25.8,90.9,1004.8,313.6,1.0,2.1,342.5,0.00,24.2,27.2,"21:48:08",1
"20/07/21","22:00",0.4,25.7,91.1,1004.8,335.3,1.7,2.9,342.0,0.00,24.2,27.0,"21:50:56",1
"20/07/21","22:10",2.8,25.7,91.3,1005.0,339.1,1.7,2.8,328.0,0.00,24.2,27.2,"22:07:20",1
"20/07/21","22:20",2.0,25.2,91.5,1005.0,327.1,1.2,3.2,28.9,0.00,23.8,26.9,"22:11:44",1
"20/07/21","22:30",0.0,25.1,91.7,1004.8,354.8,0.7,1.3,306.7,0.00,23.7,26.7,"22:20:48",1
"20/07/21","22:40",0.0,25.0,91.9,1005.0,5.4,0.6,1.7,349.9,0.00,23.6,26.9,"22:37:28",1
"20/07/21","22:50",0.0,24.9,92.1,1004.8,350.9,0.7,1.7,352.6,0.00,23.6,26.9,"22:41:12",1
"20/07/21","23:00",0.0,24.8,92.2,1005.2,336.0,0.8,1.9,350.0,0.00,23.5,26.8,"22:51:12",1
"20/07/21","23:10",0.0,24.8,92.3,1005.0,322.0,0.7,2.5,345.3,0.00,23.5,26.8,"23:02:08",1
"20/07/21","23:20",0.0,24.8,92.5,1005.2,293.7,0.8,2.8,344.1,0.00,23.5,26.7,"23:18:24",1
"20/07/21","23:30",0.0,24.7,92.6,1005.0,317.3,1.2,2.2,342.2,0.00,23.5,26.6,"23:26:16",1
"20/07/21","23:40",0.0,24.7,92.7,1005.2,307.7,0.6,2.0,347.2,0.00,23.5,26.7,"23:31:04",1
"20/07/21","23:50",0.0,24.6,92.8,1005.0,139.0,0.3,0.9,229.0,0.00,23.4,26.5,"23:42:08",1
"20/07/21","24:00",0.0,24.6,92.9,1005.2,191.3,0.3,1.1,180.1,0.00,23.4,26.7,"23:52:48",1
